Regional Weather Roundup
Issued by NWS

Home | Current Version | Previous Version | Text Only | Print | Product List | Glossary Off
Versions: 1 2 3 4 5 6 7 8 9 10 11 12 13 14 15 16 17 18 19 20 21 22 23 24 25 26 27 28 29 30 31 32 33 34 35 36 37 38 39 40 41 42 43 44 45 46 47 48 49 50

000
ASUS43 KFSD 201502
RWRSD

WEATHER ROUNDUP FOR SOUTH DAKOTA
NATIONAL WEATHER SERVICE SIOUX FALLS SD
1000 AM CDT WED SEP 20 2017

NOTE: "FAIR" INDICATES FEW OR NO CLOUDS BELOW 12,000 FEET WITH NO
SIGNIFICANT WEATHER AND/OR OBSTRUCTIONS TO VISIBILITY.


SDZ001>005-009-010-012>017-201600-
NORTHWEST AND NORTH CENTRAL SOUTH DAKOTA

CITY           SKY/WX    TMP DP  RH WIND       PRES   REMARKS
BUFFALO          N/A     51  39  63 W15       29.70R
MOBRIDGE       SUNNY     53  45  74 S8        29.77R
$$

SDZ012>016-024>037-041>051-057-063-072>074-201600-
SOUTHWEST AND SOUTH CENTRAL SOUTH DAKOTA

CITY           SKY/WX    TMP DP  RH WIND       PRES   REMARKS
RAPID CTY ARPT SUNNY     50  39  66 S7        29.83R
PIERRE         SUNNY     56  42  59 SW9       29.82R
CUSTER         SUNNY     44  27  51 W13G20    29.88R
ELLSWORTH AFB  SUNNY     51  38  59 S9        29.81R
PHILIP         SUNNY     54  43  66 SW6       29.83R
SPEARFISH      FAIR      52  28  40 W15G26    29.81R
WINNER         FAIR      60  47  61 SW8       29.86S
$$

SDZ004>011-016>023-039-040-201600-
NORTHEAST SOUTH DAKOTA

CITY           SKY/WX    TMP DP  RH WIND       PRES   REMARKS
ABERDEEN       SUNNY     56  45  66 W8        29.79S
WATERTOWN      SUNNY     57  46  66 W12       29.79R
BROOKINGS      SUNNY     57  49  74 NW14      29.82
SISSETON         N/A     60  47  61 W18G25    29.76R
$$

SDZ017-020-022-023-036>040-048>070-201600-
SOUTHEAST SOUTH DAKOTA

CITY           SKY/WX    TMP DP  RH WIND       PRES   REMARKS
SIOUX FALLS    MOSUNNY   61  52  72 NW14      29.83R
HURON          SUNNY     60  46  59 W10       29.83R
CHAMBERLAIN    SUNNY     59  49  67 SW7       29.86S
MITCHELL       SUNNY     60  51  72 W12       29.84S
YANKTON        SUNNY     60  51  72 NW13      29.84R
$$

ABBREVIATIONS USED IN REMARKS
   TC - TEMPERATURE IN CELSIUS
  WCI - WIND CHILL INDEX
   HX - HEAT INDEX
  VSB - VISIBILITY





USA.gov is the U.S. government's official web portal to all federal, state and local government web resources and services.